Orbital Elements at Epoch 2459200.5 (2020-Dec-17.0) TDB
Reference: JPL 17 (heliocentric ecliptic J2000)
Element | Value | Uncertainty (1-sigma) | Units |
e | .1643707283942093 | 3.6718e-08 | |
a | 2.76884167301016 | 1.6617e-08 | au |
q | 2.313725150409239 | 9.8995e-08 | au |
i | 7.409592090964265 | 8.0202e-06 | deg |
node | 329.5633566024098 | 2.7486e-05 | deg |
peri | 294.092540179936 | 3.8398e-05 | deg |
M | 76.39682776696611 | 2.4808e-05 | deg |
tp | 2458843.376494491369 (2019-Dec-25.87649449) | 0.00011639 | TDB |
period | 1682.850790287632 4.61 | 1.515e-05 4.148e-08 | d yr |
n | .2139227090587568 | 1.9258e-09 | deg/d |
Q | 3.223958195611081 | 1.9349e-08 | au |
|
| | Orbit Determination Parameters
Additional Information
|